Location: Estates At Meadow Wood
(40.9553°N, 81.4783°W)
Time: 12:23:07
(UTC+00:00)

Daily predictions for brighter satellites

Satellite Brightness Start Highest point End
(mag) Time Altitude Azimuth Time Altitude Azimuth Time Altitude Azimuth
Alouette 2 Rocket 3.1 12:01:41 10° NNW 12:05:25 84° W 12:09:01 10° S
Cosmos 2297 Rocket 4.0 12:01:17 10° N 12:06:01 26° NE 12:10:45 10° ESE
Cosmos 2082 Rocket 3.3 22:19:16 10° SSE 22:23:53 26° ESE 22:28:31 10° NE
Cosmos 1743 Rocket 3.9 22:20:49 10° N 22:24:58 44° ENE 22:29:06 10° SSE
Cosmos 990 Rocket 4.1 22:20:08 10° N 22:25:15 55° ENE 22:30:17 10° SE
ISS -1.8 22:24:07 10° NNW 22:26:20 16° NNE 22:28:34 10° NE
USA 267 3.6 22:21:56 10° NE 22:28:23 63° NW 22:34:49 10° WSW
CORIOLIS 4.4 22:25:09 10° SE 22:30:15 46° ENE 22:35:25 10° N
Cosmos 1340 Rocket 2.8 22:30:18 10° N 22:34:23 74° E 22:38:27 10° SSE
Cosmos 1606 4.3 22:31:14 10° SW 22:34:43 36° WNW 22:38:14 10° N
CZ-2D R/B 4.2 22:33:00 10° SE 22:36:11 25° ENE 22:39:23 10° NNE
NOAA 12 4.2 22:33:24 10° SSE 22:38:43 88° WSW 22:44:05 10° NNW
Cosmos 2026 Rocket 4.3 22:33:40 10° N 22:39:29 43° ENE 22:45:12 10° SSE
SJ 16-02 3.8 22:36:46 10° NW 22:40:28 27° W 22:44:10 10° SSW
COSMOS 2406 3.3 22:36:19 10° S 22:41:59 64° ESE 22:47:40 10° NNE
USA 229 DEB 4.0 22:36:13 10° NNW 22:43:35 66° NE 22:51:22 10° SE
USA 229 4.0 22:36:19 10° NNW 22:43:41 65° NE 22:51:26 10° SE
COSMOS 2455 3.1 22:41:12 10° S 22:47:01 53° ESE 22:52:51 10° NE
ARGOS 4.1 22:42:57 10° ESE 22:47:14 24° ENE 22:51:31 10° NNE
Cosmos 1833 Rocket 2.7 22:41:46 10° SSW 22:47:23 88° WNW 22:53:03 10° NNE
CZ-4B R/B 3.6 22:45:29 10° S 22:49:33 57° W 22:53:25 10° NNW
Cosmos 1500 3.9 22:46:44 10° NNE 22:50:05 30° ENE 22:53:23 10° SE
ATLAS CENTAUR R/B 3.5 22:38:20 10° SW 22:50:15 73° NW 22:54:53 10° NE
Cosmos 1500 Rocket 3.7 22:49:21 10° N 22:53:48 80° W 22:58:11 10° S
Radarsat 4.5 22:49:30 10° SSE 22:54:40 74° ENE 22:59:52 10° N
Cosmos 1933 3.3 22:54:00 10° S 22:58:03 88° WNW 23:02:07 10° N
PAYLOAD B 4.3 22:53:41 10° SSE 22:59:08 55° ENE 23:04:36 10° N
USA 234 3.2 22:53:44 10° ESE 23:00:14 72° NE 23:06:45 10° NW
SMAP 3.2 22:55:56 10° S 23:00:36 82° WSW 23:05:17 10° NNW
Cosmos 540 Rocket 3.4 22:56:23 10° SSW 23:01:29 85° ESE 23:06:36 10° NNE
PSLV R/B 3.6 22:58:36 10° SSE 23:02:13 60° ENE 23:05:53 10° N
CZ-4B R/B 3.5 23:00:05 10° SE 23:05:09 42° ENE 23:10:11 10° N
Sich 1 3.0 23:01:07 10° N 23:05:23 60° E 23:09:38 10° SSE
Cosmos 1805 Rocket 3.4 23:01:04 10° N 23:05:25 78° E 23:09:45 10° S
Cosmos 1809 Rocket 4.4 23:00:08 10° N 23:06:15 77° E 23:12:18 10° SSE
Cosmos 1814 Rocket 4.4 23:01:39 10° S 23:06:33 42° ESE 23:10:55 13° NE
NOSS 3-1 (A) 4.2 22:59:29 10° NW 23:07:15 88° WSW 23:16:12 10° SSE
GPS 2-04 Rocket1 3.8 23:05:57 10° WSW 23:09:48 39° S 23:12:58 14° ESE
CZ-2C R/B 2.8 23:05:53 10° NNE 23:10:53 46° E 23:15:50 10° S
Cosmos 2360 4.2 23:05:42 10° NNW 23:11:28 82° ENE 23:17:10 10° SSE
Meteor 1-26 Rocket 4.3 23:10:42 10° S 23:16:38 87° E 23:22:43 10° N
deb Chang Zheng 4 3.8 23:13:18 10° SE 23:17:23 45° ENE 23:21:31 10° N
Cosmos 1898 Rocket 3.8 23:12:40 10° NNW 23:17:54 69° WSW 23:23:02 10° S
Cosmos 2084 4.1 23:15:06 10° NW 23:19:24 60° WSW 23:23:51 10° SSE
Cosmos 1666 3.1 23:16:15 10° N 23:19:44 36° ENE 23:23:10 10° SSE
MOS 1-B 4.3 23:16:29 10° SSE 23:22:15 81° ENE 23:28:02 10° NNW
CZ-4C R/B 3.2 23:21:22 10° NNW 23:28:24 48° NE 23:36:22 11° ESE
Cosmos 2208 Rocket 4.2 23:27:14 10° S 23:32:24 51° ESE 23:35:28 24° NE
Cosmos 1812 2.6 23:29:47 10° S 23:33:38 89° E 23:36:51 14° N
H-2A R/B 2.1 23:29:49 10° S 23:35:02 79° WSW 23:40:08 10° NNW
SJ-11-01 4.2 23:31:04 10° SSE 23:35:45 63° ENE 23:40:27 10° N
COSMO-SKYMED 1 2.5 23:34:00 11° NNE 23:38:12 88° ESE 23:42:31 10° SSW
USA 276 3.6 23:36:50 10° WNW 23:39:43 35° SW 23:41:29 19° SSE
Cosmos 921 Rocket 3.4 23:44:02 10° S 23:47:24 41° SE 23:47:24 41° SE
Cosmos 1633 Rocket 2.9 23:44:47 10° N 23:49:10 81° E 23:53:34 10° S
Meteor 1-14 Rocket 4.3 23:43:33 10° N 23:49:25 89° W 23:55:21 10° S
Cosmos 2322 Rocket 3.9 23:45:27 10° N 23:47:27 17° NNE 23:47:27 17° NNE
Cosmos 1697 Rocket 4.0 23:47:11 10° NW 23:52:25 41° WSW 23:57:38 10° S
